FENGYUN 1C DEB

Satellite information

Favourite Embed

Satellite Type and Status

DEBRISIN ORBIT

Key statistics

Satellite FENGYUN 1C DEB at a glance.

Uptime

9555

Days in orbit

Revolutions

≈ 14.2

Per day

Orbit

SSO

Sun Synchronous Orbit

Inclination

98.3

Latest

Satellite identification and parameters

Extended collection of information and parameters for FENGYUN 1C DEB.

Object identification

Identified? True

Debris? True

Object name: FENGYUN 1C DEB

International designator: 1999-025ES

Object number (NORAD): 29848

Object ID (CCSDS): 29848

Country: PEOPLES REPUBLIC OF CHINA (PRC)

Current information (Y/N): Y

RCS size: SMALL

Orbital parameters

Period: 101.442 minutes

Inclination: 98.2683 deg

SMA: 7205.079 km

Apoapsis: 914.113 km

Periapsis: 739.775 km

RAAN: 64.7927 deg

Eccentricy: 0.0120983

Argument of periapsis: 39.2356 deg

Mean anomaly: 23.9041 deg

Mean motion: 14.19530238 rev/day

Mean motion (dot): 0.00002143 rev/day2

B* drag term: 0.00096204 1/REarth

Two-line elements (TLE)

Creation date: July 6, 2025, 10:46 p.m.

Reference frame: TEME

Reference center: EARTH

Epoch: July 6, 2025, 3:53 p.m. UTC

TLE line 0: 0 FENGYUN 1C DEB

TLE line 1: 1 29848U 99025ES 25187.66225589 .00002143 00000-0 96204-3 0 9996

TLE line 2: 2 29848 98.2683 64.7927 0120983 39.2356 23.9041 14.19530238948685

Live tracking on map

Real-time ground track for satellite FENGYUN 1C DEB.

In-orbit conjunctions

A list of the most updated potential collisions computed for object FENGYUN 1C DEB.

Target Orbit TCA Probability of collision Miss distance Type
PEGASUS DEB LEO 2025-05-29 22:45:49 0.0005878568 27.0 (m) DEBRIS
CZ-6A DEB LEO 2024-11-23 14:35:12 0.0004265011 853.0 (m) DEBRIS
CZ-6A DEB SSO 2024-11-10 02:05:29 0.0003497515 274.0 (m) DEBRIS
FENGYUN 1C DEB SSO 2024-11-02 20:05:56 0.0001019747 185.0 (m) DEBRIS
IRIDIUM 38 LEO 2024-09-22 07:47:41 0.0006574685 96.0 (m) PAYLOAD

Associated space launch

Chinese polar orbiting meteorological satellite

FENGYUN 1C DEB was lifted into orbit during the mission ‘Long March 4B | Feng Yun 1C’, on board a Long March 4B space rocket.

The launch took place on May 10, 1999, 1:33 a.m. from Launch Complex 7.

For more information about the launch, click the button.

Launch to space Long March 4B | Feng Yun 1C
Long March 4B | Feng Yun 1C

Agency: N/A

Status: Launch Successful

Launch date: May 10, 1999, 1:33 a.m. UTC

Rocket: Long March 4B

Launch pad: Launch Complex 7

Location: Taiyuan Satellite Launch Center, People's Republic of China

...

Latest news about this satellite

There are no fresh news available about this satellite. Check back as we update our databases every day.


Newsletter sign-up

Weekly statistics, charts and insights to help you stay on top of the space industry.